Portada
METAR-TAF:

METAR-TAF

Aeroports :

Aeroport Internacional Amata Kabua

Majuro, Illes Marshall

latitud: 07-04N, longitud: 171-17E, altitud: 2 m

METAR: manca

Hora: 03:05 (15:05 UTC)

Pronòstic

L'informe es va fer fa 3 hores i 34 minuts, a les 11:31 UTC
Pronòstic vàlid del 08 a les 12 UTC al 09 a les 12 UTC
Vent 11 kt del Est
Visibilitat: 10 km
Núvols disperses a una alçada de 1600 ft
Núvols disperses a una alçada de 4000 ft
Cel ennuvolat a una alçada de 12000 ft
xàfecs en les proximitats

TAF: PKMJ 081131Z 0812/0912 08011KT P6SM VCSH SCT016 SCT040 BKN120

Observacions i pronòstics meteorològics de més de 4000 aeroports (METAR i TAF).

Les estacions disponibles són els punts grocs i vermells al mapa.

Posi el ratolí al punt desitjat per veure el nom de l'estació.

Feu clic per veure les observacions i els pronòstics meteorològics.

Per canviar el mapa: feu clic els botons verds amb una creu de color negre per apropar; al botó verd amb un guió per allunyar la imatge; o en les fletxes verdes per a mapes adjacents.


METAR-TAF: